West Palm Beach, FL

10:49 AM EDT on October 19, 2019 (GMT -0400)
Palm Beach International

Weather History for KPBI - May, 2019

Change the Weather History Date:

Wednesday, May 8, 2019

  Actual Average Record
Temperature  
Mean Temperature 77 °F 77 °F  
Max Temperature 83 °F 85 °F 94 °F (1967)
Min Temperature 70 °F 70 °F 51 °F (1992)
Degree Days  
Heating Degree Days 0 0  
Month to date heating degree days 0 0  
Since 1 July heating degree days 144 233  
Cooling Degree Days 12 12  
Month to date cooling degree days 108 92  
Year to date cooling degree days 1033 787  
Growing Degree Days 26 (Base 50)    
Moisture  
Dew Point 70 °F    
Average Humidity 80    
Maximum Humidity 94    
Minimum Humidity 65    
Precipitation  
Precipitation 0.04 in 0.09 in 3.08 in (1939)
Month to date precipitation 3.58 0.68  
Year to date precipitation 19.30 14.88  
Snow  
Snow 0.00 in - - ()
Month to date snowfall 0.0  
Since 1 July snowfall 0.0  
Snow Depth 0.00 in    
Sea Level Pressure  
Sea Level Pressure 30.01 in    
Wind  
Wind Speed 10 mph (ENE)    
Max Wind Speed 21 mph    
Max Gust Speed 26 mph    
Visibility 10 miles    
Events Rain , Thunderstorm    
T = Trace of Precipitation, MM = Missing Value Source: NWS Daily Summary

Daily Weather History Graph

Daily Weather History Graph

Search for Another Location

Airport or City:

Astronomy

May. 08, 2019 Rise Set
Actual Time 6:37 AM EDT 7:56 PM EDT
Civil Twilight 6:12 AM EDT 8:21 PM EDT
Nautical Twilight 5:43 AM EDT 8:51 PM EDT
Astronomical Twilight 5:12 AM EDT 9:21 PM EDT
Moon 9:41 AM EDT (5/8) 11:46 PM EDT (5/8)
Length of Visible Light 14h 08m
Length of Day
13h 19m
Waxing Crescent, 15% of the Moon is Illuminated
May 8
Waxing Crescent
May 11
First Quarter
May 18
Full
May 26
Last Quarter
Jun 3
New

Hourly Weather History & Observations

Time (EDT) Temp. Heat Index Dew Point Humidity Pressure Visibility Wind Dir Wind Speed Gust Speed Precip Events Conditions
12:53 AM 75.9 °F - 73.0 °F 91% 30.04 in 10.0 mi Calm Calm - N/A   Scattered Clouds
1:53 AM 73.9 °F - 72.0 °F 93% 30.03 in 10.0 mi WSW 6.9 mph - N/A   Mostly Cloudy
2:16 AM 73.9 °F - 70.0 °F 87% 30.03 in 10.0 mi SSW 12.7 mph - N/A Thunderstorm Thunderstorm
2:43 AM 73.0 °F - 69.1 °F 87% 30.03 in 10.0 mi South 9.2 mph - N/A   Mostly Cloudy
2:53 AM 73.0 °F - 69.1 °F 87% 30.01 in 10.0 mi South 6.9 mph - N/A   Mostly Cloudy
3:53 AM 72.0 °F - 66.9 °F 84% 30.00 in 10.0 mi Calm Calm - 0.04 in Rain Light Rain
4:53 AM 73.0 °F - 68.0 °F 84% 29.99 in 10.0 mi Calm Calm - 0.00 in   Mostly Cloudy
5:53 AM 72.0 °F - 69.1 °F 91% 29.99 in 10.0 mi North 3.5 mph - N/A   Mostly Cloudy
6:53 AM 71.1 °F - 69.1 °F 93% 30.00 in 10.0 mi WNW 3.5 mph - N/A   Scattered Clouds
7:53 AM 73.0 °F - 71.1 °F 93% 30.03 in 10.0 mi NW 4.6 mph - N/A   Scattered Clouds
8:53 AM 79.0 °F - 72.0 °F 79% 30.04 in 10.0 mi NNE 3.5 mph - N/A   Scattered Clouds
9:53 AM 79.0 °F - 71.1 °F 77% 30.04 in 10.0 mi ENE 10.4 mph - N/A   Scattered Clouds
10:53 AM 80.1 °F 83.6 °F 71.1 °F 74% 30.04 in 10.0 mi ENE 12.7 mph - N/A   Scattered Clouds
11:53 AM 81.0 °F 84.9 °F 71.1 °F 72% 30.04 in 10.0 mi NE 9.2 mph - N/A   Scattered Clouds
12:53 PM 82.0 °F 86.3 °F 71.1 °F 69% 30.03 in 10.0 mi ENE 17.3 mph - N/A   Mostly Cloudy
1:53 PM 82.9 °F 87.5 °F 71.1 °F 67% 30.01 in 10.0 mi ENE 16.1 mph - N/A   Mostly Cloudy
2:53 PM 82.0 °F 85.9 °F 70.0 °F 67% 30.01 in 10.0 mi ENE 15.0 mph - N/A   Scattered Clouds
3:53 PM 81.0 °F 84.4 °F 70.0 °F 69% 29.99 in 10.0 mi ENE 19.6 mph 26.5 mph N/A   Scattered Clouds
4:53 PM 80.1 °F 83.6 °F 71.1 °F 74% 29.99 in 10.0 mi ENE 15.0 mph 24.2 mph 0.00 in   Mostly Cloudy
5:53 PM 80.1 °F 83.2 °F 70.0 °F 71% 29.99 in 10.0 mi ENE 13.8 mph - N/A   Mostly Cloudy
6:53 PM 79.0 °F - 69.1 °F 72% 29.98 in 10.0 mi ENE 15.0 mph - N/A   Mostly Cloudy
7:53 PM 78.1 °F - 69.1 °F 74% 29.99 in 10.0 mi East 13.8 mph - N/A   Mostly Cloudy
8:53 PM 78.1 °F - 70.0 °F 76% 30.01 in 10.0 mi East 12.7 mph - N/A   Mostly Cloudy
9:53 PM 78.1 °F - 69.1 °F 74% 30.01 in 10.0 mi East 10.4 mph - N/A   Scattered Clouds
10:53 PM 78.1 °F - 71.1 °F 79% 30.01 in 10.0 mi East 9.2 mph - N/A   Scattered Clouds
11:53 PM 78.1 °F - 71.1 °F 79% 30.02 in 10.0 mi East 9.2 mph - N/A   Mostly Cloudy